D1965 Weather Reports


time (UTC)temp
F
wind
direction
speed
knots
gust
knots
rain 1hr
in
rain 24hr
in
rain mn
in
humidity
%
barometer
mb
20260503050005 49 31 0.0 0.9 0.00 0.00 0.00 93 1009.4
20260503045504 49 31 0.0 0.9 0.00 0.00 0.00 93 1009.4
20260503045004 49 31 0.0 1.7 0.00 0.00 0.00 93 1009.4
20260503044504 49 31 0.0 1.7 0.00 0.00 0.00 93 1009.4
20260503044005 49 0 0.0 0.0 0.00 0.00 0.00 93 1009.3
20260503043504 49 0 0.0 0.0 0.00 0.00 0.00 93 1009.4
20260503043005 49 32 0.0 0.9 0.00 0.00 0.00 93 1009.4
20260503042504 49 31 0.0 1.7 0.00 0.00 0.00 93 1009.3
20260503041503 49 32 0.0 1.7 0.00 0.00 0.00 93 1009.5
20260503041005 49 0 0.0 0.0 0.00 0.00 0.00 93 1009.4
20260503040504 49 0 0.0 0.0 0.00 0.00 0.00 93 1009.4
20260503040006 49 0 0.0 0.0 0.00 0.00 0.00 93 1009.4
20260503035504 49 0 0.0 0.0 0.00 0.00 0.00 93 1009.5
20260503035005 49 0 0.0 0.0 0.00 0.00 0.00 93 1009.5
20260503034504 49 0 0.0 0.0 0.00 0.00 0.00 93 1009.5
20260503034005 49 33 0.0 1.7 0.00 0.00 0.00 93 1009.6
20260503033504 49 33 0.0 1.7 0.00 0.00 0.00 93 1009.6
20260503033005 49 0 0.0 0.0 0.00 0.00 0.00 93 1009.6
20260503032504 49 0 0.0 0.0 0.00 0.00 0.00 93 1009.7
20260503032005 49 61 0.0 2.6 0.00 0.00 0.00 93 1009.7
20260503031504 49 61 0.0 2.6 0.00 0.00 0.00 93 1009.7
20260503031005 49 63 0.0 1.7 0.00 0.00 0.00 93 1009.8
20260503030504 49 63 0.0 1.7 0.00 0.00 0.00 93 1009.7
20260503030004 49 64 0.0 0.9 0.00 0.00 0.00 93 1009.7
20260503025504 50 64 0.0 0.9 0.00 0.00 0.00 93 1009.8
20260503025007 49 64 0.0 0.9 0.00 0.00 0.00 93 1009.8
20260503024504 49 65 0.0 1.7 0.00 0.00 0.00 93 1009.8
20260503024005 50 65 0.0 1.7 0.00 0.00 0.00 93 1009.8
20260503023503 50 68 0.0 1.7 0.00 0.00 0.00 93 1009.8
20260503023005 49 68 0.0 1.7 0.00 0.00 0.00 93 1009.9
20260503022006 49 69 0.0 2.6 0.00 0.00 0.00 93 1010.0
20260503021503 49 0 0.0 0.0 0.00 0.00 0.00 93 1009.9
20260503021004 49 0 0.0 0.0 0.00 0.00 0.00 93 1010.0
20260503020504 49 0 0.0 0.0 0.00 0.00 0.00 93 1010.0
20260503020004 49 0 0.0 0.0 0.00 0.00 0.00 93 1010.0
20260503015504 49 0 0.0 0.0 0.00 0.00 0.00 93 1010.1
20260503015004 49 0 0.0 0.0 0.00 0.00 0.00 93 1010.1
20260503014504 49 0 0.0 0.0 0.00 0.00 0.00 93 1010.2
20260503014005 49 0 0.0 0.0 0.00 0.00 0.00 93 1010.2
20260503013504 49 0 0.0 0.0 0.00 0.00 0.00 93 1010.2
20260503013004 49 0 0.0 0.0 0.00 0.00 0.00 93 1010.3
20260503012503 49 0 0.0 0.0 0.00 0.00 0.00 93 1010.3
20260503012004 49 0 0.0 0.0 0.00 0.00 0.00 93 1010.2
20260503011004 49 0 0.0 0.0 0.00 0.00 0.00 93 1010.4
20260503010504 49 0 0.0 0.0 0.00 0.00 0.00 93 1010.5
20260503010005 49 0 0.0 0.0 0.00 0.00 0.00 93 1010.4
20260503005504 49 0 0.0 0.0 0.00 0.00 0.00 93 1010.5
20260503005005 49 0 0.0 0.0 0.00 0.00 0.00 93 1010.5
20260503004504 49 0 0.0 0.0 0.00 0.00 0.00 93 1010.5
20260503004005 49 0 0.0 0.0 0.00 0.00 0.00 93 1010.6
20260503003504 48 0 0.0 0.0 0.00 0.00 0.00 93 1010.6
20260503002504 48 0 0.0 0.0 0.00 0.00 0.00 93 1010.7
20260503001503 48 0 0.0 0.0 0.00 0.00 0.00 93 1010.7
20260503001004 48 0 0.0 0.0 0.00 0.00 0.00 93 1010.7
20260503000005 48 0 0.0 0.0 0.00 0.00 0.00 92 1010.7
20260502235503 48 0 0.0 0.0 0.00 0.00 0.00 92 1010.7
20260502235004 48 0 0.0 0.0 0.00 0.00 0.00 91 1010.7
20260502234506 48 0 0.0 0.0 0.00 0.00 0.00 92 1010.7
20260502233506 48 0 0.0 0.0 0.00 0.00 0.00 91 1010.8
20260502233007 48 0 0.0 0.0 0.00 0.00 0.00 91 1010.7
20260502232505 48 0 0.0 0.0 0.00 0.00 0.00 92 1010.8
20260502232007 48 0 0.0 0.0 0.00 0.00 0.00 91 1010.7
20260502231506 48 0 0.0 0.0 0.00 0.00 0.00 91 1010.7
20260502231007 48 0 0.0 0.0 0.00 0.00 0.00 91 1010.7
20260502230506 48 0 0.0 0.0 0.00 0.00 0.00 90 1010.8
20260502230006 48 0 0.0 0.0 0.00 0.00 0.00 90 1010.7
20260502225506 48 0 0.0 0.0 0.00 0.00 0.00 90 1010.7
20260502224506 49 0 0.0 0.0 0.00 0.00 0.00 89 1010.7
20260502224007 49 0 0.0 0.0 0.00 0.00 0.00 89 1010.7
20260502223506 49 0 0.0 0.0 0.00 0.00 0.00 89 1010.7
20260502223007 49 0 0.0 0.0 0.00 0.00 0.00 89 1010.8
20260502222505 49 0 0.0 0.0 0.00 0.00 0.00 89 1010.9
20260502222007 49 0 0.0 0.0 0.00 0.00 0.00 89 1010.8
20260502221506 49 0 0.0 0.0 0.00 0.00 0.00 89 1010.8
20260502221007 49 0 0.0 0.0 0.00 0.00 0.00 89 1010.8
20260502220505 49 0 0.0 0.0 0.00 0.00 0.00 88 1010.8
20260502220006 49 0 0.0 0.0 0.00 0.00 0.00 88 1010.9
20260502215505 50 0 0.0 0.0 0.00 0.00 0.00 88 1010.8
20260502214506 50 0 0.0 0.0 0.00 0.00 0.00 88 1010.8
20260502213506 50 0 0.0 0.0 0.00 0.00 0.00 87 1010.9
20260502212506 50 0 0.0 0.0 0.00 0.00 0.00 87 1010.9
20260502212006 50 0 0.0 0.0 0.00 0.00 0.00 87 1010.9
20260502211505 50 0 0.0 0.0 0.00 0.00 0.00 87 1010.9
20260502210506 51 107 0.0 2.6 0.00 0.00 0.00 87 1011.0
20260502210006 51 105 0.9 2.6 0.00 0.00 0.00 87 1010.9
20260502205505 51 110 1.7 3.5 0.00 0.00 0.00 87 1011.0
20260502205006 51 111 0.9 3.5 0.00 0.00 0.00 87 1010.9
20260502204505 51 107 0.9 5.2 0.00 0.00 0.00 88 1010.8
20260502204006 51 110 0.9 5.2 0.00 0.00 0.00 88 1010.9
20260502203505 51 126 0.9 3.5 0.00 0.00 0.00 88 1011.0
20260502202505 51 125 0.9 4.3 0.00 0.00 0.00 88 1010.8
20260502202006 51 127 0.9 4.3 0.00 0.00 0.00 88 1011.0
20260502200506 52 130 1.7 4.3 0.00 0.00 0.00 87 1010.8
20260502200006 52 125 0.9 2.6 0.00 0.00 0.00 87 1010.8
20260502195505 52 136 0.0 1.7 0.00 0.00 0.00 87 1010.7
20260502195007 52 139 0.0 3.5 0.00 0.00 0.00 87 1010.8
20260502194506 52 139 0.9 3.5 0.00 0.00 0.00 87 1010.8
20260502194007 52 131 0.9 3.5 0.00 0.00 0.00 87 1010.8
20260502193506 53 129 1.7 4.3 0.00 0.00 0.00 86 1010.8
20260502193006 53 121 1.7 5.2 0.00 0.00 0.00 87 1010.8
20260502192505 53 113 0.9 5.2 0.00 0.00 0.00 87 1010.8
20260502192007 53 122 0.9 3.5 0.00 0.00 0.00 87 1010.8
20260502191505 53 133 0.9 3.5 0.00 0.00 0.00 87 1010.8
20260502191006 53 136 0.9 4.3 0.00 0.00 0.00 87 1010.8
20260502190006 53 144 0.9 3.5 0.00 0.00 0.00 87 1010.9
20260502185006 53 121 0.0 2.6 0.00 0.00 0.00 87 1010.9
20260502184007 53 147 0.9 2.6 0.00 0.00 0.00 87 1011.0
20260502183505 53 160 0.9 5.2 0.00 0.00 0.00 87 1010.9
20260502182505 53 160 0.9 4.3 0.00 0.00 0.00 85 1010.9
20260502182006 53 146 0.9 4.3 0.00 0.00 0.00 84 1010.9
20260502181505 53 166 0.9 3.5 0.00 0.00 0.00 84 1010.9
20260502181006 53 177 0.9 4.3 0.00 0.00 0.00 84 1010.9
20260502180505 53 166 1.7 6.1 0.00 0.00 0.00 84 1010.9
20260502170505 55 123 2.6 7.8 0.00 0.00 0.00 79 1011.1
20260502164007 57 150 2.6 7.0 0.00 0.00 0.00 78 1011.1
20260502163005 56 117 4.3 8.7 0.00 0.00 0.00 78 1011.1
20260502162005 57 124 3.5 8.7 0.00 0.00 0.00 77 1011.2
20260502161505 57 115 3.5 8.7 0.00 0.00 0.00 75 1011.1
20260502161006 58 124 3.5 9.6 0.00 0.00 0.00 75 1011.1
20260502160505 58 146 3.5 9.6 0.00 0.00 0.00 73 1011.0
20260502152006 57 119 3.5 7.8 0.00 0.00 0.00 78 1011.3
20260502151505 57 126 3.5 8.7 0.00 0.00 0.00 77 1011.3
20260502151006 57 142 3.5 8.7 0.00 0.00 0.00 78 1011.4
20260502150505 57 151 3.5 7.0 0.00 0.00 0.00 76 1011.4
20260502130505 57 124 3.5 10.4 0.00 0.00 0.00 81 1012.1
20260502123505 57 147 3.5 8.7 0.00 0.00 0.00 80 1012.3
20260502123005 57 138 3.5 10.4 0.00 0.00 0.00 81 1012.4
20260502122006 57 122 3.5 10.4 0.00 0.00 0.00 80 1012.4
20260502121505 58 143 2.6 7.8 0.00 0.00 0.00 81 1012.5
20260502121005 58 144 2.6 8.7 0.00 0.00 0.00 81 1012.5
20260502120504 58 142 3.5 8.7 0.00 0.00 0.00 83 1012.6
20260502115505 56 159 2.6 6.1 0.00 0.00 0.00 84 1012.9
20260502115007 56 158 2.6 6.1 0.00 0.00 0.00 84 1012.8
20260502114505 56 160 2.6 7.8 0.00 0.00 0.00 84 1012.9
20260502114006 56 159 3.5 7.8 0.00 0.00 0.00 84 1012.9
20260502113505 56 153 2.6 7.0 0.00 0.00 0.00 84 1012.9
20260502113006 56 147 2.6 7.8 0.00 0.00 0.00 85 1013.0
20260502112505 56 149 3.5 7.8 0.00 0.00 0.00 85 1013.0
20260502111505 56 137 2.6 7.8 0.00 0.00 0.00 86 1012.9
20260502111005 56 151 3.5 7.8 0.00 0.00 0.00 86 1012.9
20260502110505 56 149 3.5 8.7 0.00 0.00 0.00 86 1012.9
20260502110006 56 141 3.5 8.7 0.00 0.00 0.00 86 1013.0
20260502105504 55 146 2.6 8.7 0.00 0.00 0.00 87 1013.0
20260502104504 54 137 2.6 7.8 0.00 0.00 0.00 90 1013.1
20260502104006 54 131 2.6 7.8 0.00 0.00 0.00 90 1013.1
20260502103504 53 142 2.6 7.8 0.00 0.00 0.00 90 1013.2
20260502102504 53 141 3.5 7.8 0.00 0.00 0.00 90 1013.2
20260502102005 53 138 2.6 7.8 0.00 0.00 0.00 90 1013.4
20260502101006 53 149 2.6 6.1 0.00 0.00 0.00 91 1013.4
20260502100504 53 146 1.7 6.1 0.00 0.00 0.00 90 1013.5
20260502091505 52 149 2.6 6.1 0.00 0.00 0.00 91 1013.8
20260502091005 52 146 2.6 7.0 0.00 0.00 0.00 91 1013.7
20260502090505 52 143 2.6 7.0 0.00 0.00 0.00 91 1013.8
20260502071504 51 143 2.6 7.0 0.00 0.00 0.00 90 1013.7
20260502071005 51 148 1.7 7.0 0.00 0.00 0.00 90 1013.8
20260502070505 51 148 1.7 5.2 0.00 0.00 0.00 90 1013.8
20260502070006 51 134 1.7 5.2 0.00 0.00 0.00 91 1013.7
20260502065504 51 122 2.6 7.0 0.00 0.00 0.00 91 1013.6
20260502065005 51 130 2.6 7.0 0.00 0.00 0.00 90 1013.7
20260502064505 51 131 1.7 6.1 0.00 0.00 0.00 91 1013.6
20260502064005 51 123 1.7 5.2 0.00 0.00 0.00 90 1013.5
20260502063505 51 126 1.7 7.0 0.00 0.00 0.00 90 1013.6
20260502063006 51 127 1.7 7.0 0.00 0.00 0.00 90 1013.7
20260502062504 51 124 1.7 7.0 0.00 0.00 0.00 89 1013.5
20260502062005 51 141 1.7 5.2 0.00 0.00 0.00 89 1013.7
20260502061505 51 166 1.7 5.2 0.00 0.00 0.00 89 1013.7
20260502060505 51 168 1.7 4.3 0.00 0.00 0.00 90 1013.7
20260502060005 51 149 1.7 5.2 0.00 0.00 0.00 90 1013.8
20260502055504 51 137 1.7 5.2 0.00 0.00 0.00 90 1013.9
20260502054504 51 128 1.7 7.0 0.00 0.00 0.00 90 1013.8
20260502054005 51 144 0.9 4.3 0.00 0.00 0.00 90 1013.9
20260502053504 51 148 0.9 3.5 0.00 0.00 0.00 90 1013.8
20260502053005 51 142 0.9 4.3 0.00 0.00 0.00 91 1013.8
20260502052504 51 133 0.9 4.3 0.00 0.00 0.00 91 1014.0
20260502052007 51 134 0.9 4.3 0.00 0.00 0.00 91 1013.9
20260502051504 51 133 1.7 4.3 0.00 0.00 0.00 91 1013.9
20260502051005 51 130 1.7 6.1 0.00 0.00 0.00 90 1014.0
20260502050504 50 128 1.7 6.1 0.00 0.00 0.00 90 1013.9